Location: Aulnoy
(48.8410°N, 3.0967°E)
Time: 22:55:42
(UTC+00:00)

CSL-04 Rocket - Pass Details

Date: 09 February 2023
Orbit: 806 x 860 km, 98.8° (Epoch: 01 April)

Event Time Altitude Azimuth Distance (km) Brightness Sun altitude
Exits shadow 18:43:54 27° 113° (ESE) 1,544 4.6 -17.8°
Maximum altitude 18:46:11 40° 65° (ENE) 1,205 4.1 -18.2°
Drops below altitude 10° 18:51:15 10° 357° (N) 2,466 6.1 -19.0°
Sets 18:53:45 0° 351° (N) 3,414 7.0 -19.4°
